702  
ASUS43 KGLD 201108  
RWRGLD  
 
GOODLAND FORECAST AREA HOURLY WEATHER ROUNDUP  
NATIONAL WEATHER SERVICE GOODLAND KS  
400 AM MST SUN JAN 20 2019  
   
..OFFICIAL OBSERVATIONS
 
 
 
CITY SKY/WX TMP DP RH WIND PRES REMARKS
 
GOODLAND KS CLEAR 32 22 66 W15 30.05F  
HILL CITY KS CLOUDY 22 20 92 SW6 30.10F  
IMPERIAL NEB CLEAR 25 17 72 SW7 30.02F  
MCCOOK NEB CLEAR 25 21 85 W9 30.06S  
AKRON CO PTCLDY 31 22 69 SW14 30.04F  
BURLINGTON CO PTCLDY 31 21 66 W10 30.08F  
LIMON CO PTCLDY 21 18 88 NW3 30.10S  

 
   
..UNOFFICIAL OBSERVATIONS
 
 
 
CITY SKY/WX TMP DP RH WIND PRES REMARKS
 
COLBY KS CLEAR 30 23 74 W8 30.08S  
SHARON SPRINGS N/A 26 22 84 W10 N/A WCI 16  
KIT CARSON CO N/A 20 15 82 CALM N/A  
YUMA CO FAIR 27 19 74 W3 30.04  

 
 
 
CLICK HERE TO GO TO PREVIOUS BULLETINS.

The Nexlab KS Page
The Nexlab CO Page
The Nexlab NE Page Main Text Page